軌道要素
Epoch 2014 July 2.0 TT = JDT 2456840.5
T 2014 July 15.42153 TT MPCW
q 2.2345411 (2000.0) P Q
n 0.06193211 Peri. 182.77953 +0.88435995 +0.46453469
a 6.3269171 Node 149.40572 -0.42652392 +0.84415091
e 0.6468199 Incl. 5.18432 -0.18969667 +0.26761308
P 15.9
From 1067 observations 2014 June 7-2015 Jan. 19, mean residual 0".5.
|